Weather History for Sparta, WI

Change the Weather History Date:

Wednesday, July 24, 2013

  Actual Average Record
Temperature  
Mean Temperature 59 °F -  
Max Temperature 75 °F 83 °F 96 °F (1964)
Min Temperature 43 °F 58 °F 43 °F (2013)
Degree Days  
Heating Degree Days 6    
Growing Degree Days 9 (Base 50)    
Moisture  
Dew Point 48 °F    
Average Humidity 68    
Maximum Humidity 100    
Minimum Humidity 33    
Precipitation  
Precipitation 0.00 in - - ()
Sea Level Pressure  
Sea Level Pressure 30.06 in    
Wind  
Wind Speed 1 mph (SW)    
Max Wind Speed 6 mph    
Max Gust Speed -    
Visibility 10 miles    
Events      
Averages and records for this station are not official NWS values.
T = Trace of Precipitation, MM = Missing Value Source: NWS Daily Summary

Daily Weather History Graph

Daily Weather History Graph

Search for Another Location

Airport:

Trip Planner

Search our weather history database for the weather conditions in past years. The results will help you decide how hot, cold, wet, or windy it might be!

Date:

Astronomy

Jul. 24, 2013 Rise Set
Actual Time 5:43 AM CDT 8:35 PM CDT
Civil Twilight 5:09 AM CDT 9:09 PM CDT
Nautical Twilight 4:26 AM CDT 9:51 PM CDT
Astronomical Twilight 3:35 AM CDT 10:41 PM CDT
Moon 9:33 PM CDT (7/24) 8:10 AM CDT (7/24)
Length of Visible Light 15h 59m
Length of Day
14h 52m
Waning Gibbous, 94% of the Moon is Illuminated
Jul 24
Waning Gibbous
Jul 29
Last Quarter
Aug 6
New
Aug 14
First Quarter
Aug 20
Full

Hourly Weather History & Observations

Time (CDT) Temp. Dew Point Humidity Pressure Visibility Wind Dir Wind Speed Gust Speed Precip Events Conditions
12:15 AM 50.0 °F 48.2 °F 94% 30.04 in 10.0 mi Calm Calm - N/A   Unknown
12:55 AM 51.3 °F 49.6 °F 94% 30.05 in 10.0 mi Calm Calm - N/A   Unknown
1:15 AM 50.0 °F 48.4 °F 94% 30.05 in 10.0 mi Calm Calm - N/A   Unknown
1:35 AM 49.3 °F 47.7 °F 94% 30.05 in 10.0 mi Calm Calm - N/A   Unknown
1:55 AM 49.1 °F 47.3 °F 93% 30.04 in 10.0 mi Calm Calm - N/A   Unknown
2:15 AM 48.2 °F 48.2 °F 100% 30.05 in 10.0 mi Calm Calm - N/A   Unknown
3:15 AM 46.8 °F 46.0 °F 97% 30.05 in 10.0 mi Calm Calm - N/A   Unknown
3:35 AM 46.6 °F 45.7 °F 97% 30.06 in 10.0 mi Calm Calm - N/A   Unknown
3:55 AM 45.7 °F 44.8 °F 97% 30.06 in 10.0 mi Calm Calm - N/A   Unknown
4:15 AM 45.0 °F 44.2 °F 97% 30.07 in 10.0 mi Calm Calm - N/A   Unknown
4:35 AM 45.1 °F 44.1 °F 96% 30.07 in 10.0 mi Calm Calm - N/A   Unknown
4:55 AM 44.4 °F 43.3 °F 96% 30.08 in 10.0 mi Calm Calm - N/A   Unknown
5:15 AM 43.7 °F 42.8 °F 97% 30.08 in 10.0 mi Calm Calm - N/A   Unknown
5:35 AM 43.7 °F 42.6 °F 96% 30.08 in 10.0 mi Calm Calm - N/A   Unknown
5:55 AM 43.0 °F 42.4 °F 98% 30.08 in 10.0 mi Calm Calm - N/A   Unknown
6:15 AM 44.2 °F 43.5 °F 97% 30.08 in 10.0 mi Calm Calm - N/A   Unknown
6:35 AM 45.9 °F 44.6 °F 95% 30.08 in 10.0 mi Calm Calm - N/A   Unknown
6:55 AM 47.5 °F 45.9 °F 94% 30.09 in 10.0 mi Calm Calm - N/A   Unknown
7:35 AM 52.7 °F 49.5 °F 89% 30.10 in 10.0 mi Calm Calm - N/A   Unknown
8:15 AM 55.0 °F 51.1 °F 86% 30.09 in 10.0 mi Calm Calm - N/A   Unknown
8:35 AM 56.3 °F 51.4 °F 84% 30.10 in 10.0 mi Calm Calm - N/A   Unknown
8:55 AM 57.4 °F 51.6 °F 81% 30.10 in 10.0 mi Calm Calm - N/A   Unknown
9:15 AM 58.6 °F 51.4 °F 77% 30.10 in 10.0 mi Calm Calm - N/A   Unknown
9:35 AM 60.8 °F 51.8 °F 72% 30.11 in 10.0 mi Calm Calm - N/A   Unknown
10:35 AM 67.1 °F 53.6 °F 62% 30.10 in 10.0 mi Calm Calm - N/A   Unknown
10:55 AM 67.6 °F 50.9 °F 55% 30.09 in 10.0 mi SSE 3.5 mph - N/A   Unknown
11:35 AM 70.7 °F 46.6 °F 42% 30.09 in 10.0 mi Calm Calm - N/A   Unknown
12:55 PM 71.6 °F 47.1 °F 42% 30.08 in 10.0 mi Calm Calm - N/A   Unknown
1:15 PM 73.6 °F 47.5 °F 39% 30.07 in 10.0 mi SSW 4.6 mph - N/A   Unknown
1:35 PM 73.6 °F 47.3 °F 39% 30.07 in 10.0 mi Calm Calm - N/A   Unknown
1:55 PM 72.9 °F 47.3 °F 40% 30.07 in 10.0 mi NW 3.5 mph - N/A   Unknown
2:15 PM 74.5 °F 46.6 °F 37% 30.06 in 10.0 mi WSW 5.8 mph - N/A   Unknown
2:35 PM 74.7 °F 46.0 °F 36% 30.06 in 10.0 mi West 4.6 mph - N/A   Unknown
2:55 PM 75.7 °F 44.6 °F 33% 30.06 in 10.0 mi Calm Calm - N/A   Unknown
3:15 PM 73.4 °F 44.6 °F 36% 30.06 in 10.0 mi Calm Calm - N/A   Unknown
3:35 PM 72.9 °F 47.5 °F 40% 30.06 in 10.0 mi East 4.6 mph - N/A   Unknown
3:55 PM 72.0 °F 48.4 °F 43% 30.05 in 10.0 mi ENE 3.5 mph - N/A   Unknown
4:15 PM 72.5 °F 46.4 °F 39% 30.05 in 10.0 mi Calm Calm - N/A   Unknown
4:35 PM 75.4 °F 46.0 °F 35% 30.05 in 10.0 mi SE 3.5 mph - N/A   Unknown
4:55 PM 74.7 °F 44.8 °F 34% 30.04 in 10.0 mi SSW 4.6 mph - N/A   Unknown
5:15 PM 73.4 °F 44.6 °F 36% 30.04 in 10.0 mi SW 4.6 mph - N/A   Unknown
5:35 PM 72.9 °F 43.9 °F 35% 30.04 in 10.0 mi WSW 4.6 mph - N/A   Unknown
5:55 PM 72.9 °F 44.6 °F 36% 30.04 in 10.0 mi WNW 3.5 mph - N/A   Unknown
6:15 PM 72.5 °F 45.7 °F 38% 30.03 in 10.0 mi West 4.6 mph - N/A   Unknown
6:35 PM 72.0 °F 47.3 °F 41% 30.03 in 10.0 mi Calm Calm - N/A   Unknown
6:55 PM 71.6 °F 47.8 °F 43% 30.03 in 10.0 mi West 3.5 mph - N/A   Unknown
7:15 PM 71.4 °F 49.6 °F 46% 30.04 in 10.0 mi Calm Calm - N/A   Unknown
7:35 PM 70.9 °F 50.4 °F 48% 30.04 in 10.0 mi Calm Calm - N/A   Unknown
8:15 PM 68.9 °F 53.2 °F 57% 30.03 in 10.0 mi Calm Calm - N/A   Unknown
8:35 PM 65.5 °F 55.9 °F 71% 30.03 in 10.0 mi Calm Calm - N/A   Unknown
9:15 PM 60.8 °F 55.4 °F 82% 30.03 in 10.0 mi Calm Calm - N/A   Unknown
9:35 PM 59.0 °F 55.4 °F 88% 30.04 in 10.0 mi Calm Calm - N/A   Unknown
9:55 PM 59.0 °F 56.1 °F 90% 30.04 in 10.0 mi Calm Calm - N/A   Unknown
11:35 PM 59.0 °F 55.4 °F 88% 30.05 in 10.0 mi Calm Calm - N/A   Unknown
11:55 PM 57.2 °F 55.4 °F 94% 30.05 in 10.0 mi Calm Calm - N/A   Unknown